OBJECT F, 61232

Orbit data source: Space-Track

You're viewing an Uncataloged Satellite

Recently launched and/or uncataloged satellites may have evolving metadata. Metadata may include but not limited to: Owner, Maufacturer, Bus, Motor, and Mission.

OBJECT F, 61232 is a Chinese satellite in SSO that was launched on Tue, 24 Sep 2024 UTC via a JIELONG-3 launch vehicle from the Yellow Sea Launch Area, China (YSLA). Unknown objects in Earth's orbit typically refer to objects detected orbiting the Earth but have not yet been identified or cataloged. These objects could be anything from previously untracked satellites, spent rocket stages, debris from satellite collisions, or even natural meteoroids temporarily captured by Earth's gravity.

Loading next visibility...
Identifier
61232, 2024-173F
Orbit
SSO
Country
Flag of CNCN / PRC
Related business
None
Manufacturer
Unknown
Mission
Operational Commercial Technology
Bus & Motor
Unknown
Mass
Unknown
Launch date (UTC)
2024-09-24 (1 year ago)
Launch vehicle
JIELONG-3
Launch site
Yellow Sea Launch Area, China (YSLA)
Object type
Unknown
Shape & HBR
Box + 3 Pan, 0.1 m
Radar Cross Section
0.135 m², Medium (>0.1 m² and < 1m²)

Expand to show TLE details & history
Last TLE update: 6 hours ago

TLE from 6 hours ago
0 OBJECT F
1 61232U 24173F   26035.54171067  .00033025  00000-0  40412-3 0  9995
2 61232  97.3573 126.1678 0005147 268.8884  91.1783 15.60317224 76825
Epoch: 2026-02-04T13:00Z
TLE epoch observation values (Epoch: 2026-02-04T13:00:03.801Z)
Latitude
-0.00009°
Longitude
156.44517°
Altitude
389.96 km
Speed
7.676 km/s
True Right ascension
08h 24m 40s
True Declination
0° 00' 00"
Sunlit
Object was in full shadow at epoch
Visualization orbit readout
Latitude
Unknown
Longitude
Unknown
Altitude
Unknown
Speed
Unknown
Apparent Right ascension
Unknown
Apparent Declination
Unknown
Sunlit
N/A
Visualization observer readout
Local Sidereal Time
20:39:18
Azimuth
Unknown
Elevation
Unknown
Doppler factor
Unknown
Orbital elements
Apogee altitude
387.131 km
Perigee altitude
380.17 km
Semi-major axis
6,761.787 km
Eccentricity
0.00051
Inclination
97.3573°
RAAN
126.1678°
Arg. of periapsis
268.8884°
True anomaly
91.23727°
Mean anomaly
91.1783°
Eccentric anomaly
91.20778°
Mean motion
3.90347 °/min
Orbital period
92.23 mins
BSTAR
0.00040412
Loading maneuver chart data...
Computing Atmospheric mass density...
Loading historical data...
Loading historical data...
Loading historical data...
Loading historical data...
Loading historical data...
Loading historical data...
Loading historical data...

Documentation

Showing up to 5 results
|